| time (UTC) | temp C | wind direction | speed KPH | gust KPH | rain 1hr cm | rain 24hr cm | rain mn cm | humidity % | barometer mb |
| 20260507143105 | 21 | 351 | 0.0 | 0.0 | 0.00 | 0.00 | 0.00 | 27 | 1012.9 |
| 20260507142547 | 21 | 351 | 0.0 | 0.0 | 0.00 | 0.00 | 0.00 | 27 | 1012.8 |
| 20260507142045 | 21 | 351 | 0.0 | 1.6 | 0.00 | 0.00 | 0.00 | 28 | 1012.7 |
| 20260507141603 | 21 | 351 | 0.0 | 1.6 | 0.00 | 0.00 | 0.00 | 28 | 1012.7 |
| 20260507141046 | 21 | 351 | 0.0 | 4.8 | 0.00 | 0.00 | 0.00 | 28 | 1012.7 |
| 20260507140544 | 20 | 350 | 1.6 | 4.8 | 0.00 | 0.00 | 0.00 | 29 | 1012.6 |
| 20260507140041 | 20 | 355 | 1.6 | 3.2 | 0.00 | 0.00 | 0.00 | 29 | 1012.7 |
| 20260507135539 | 20 | 351 | 0.0 | 3.2 | 0.00 | 0.00 | 0.00 | 30 | 1012.7 |
| 20260507135037 | 19 | 351 | 0.0 | 4.8 | 0.00 | 0.00 | 0.00 | 30 | 1012.6 |
| 20260507134539 | 19 | 355 | 0.0 | 8.0 | 0.00 | 0.00 | 0.00 | 30 | 1012.4 |
| 20260507134035 | 18 | 351 | 1.6 | 8.0 | 0.00 | 0.00 | 0.00 | 31 | 1012.5 |
| 20260507133533 | 18 | 360 | 3.2 | 8.0 | 0.00 | 0.00 | 0.00 | 31 | 1012.5 |
| 20260507133034 | 18 | 360 | 3.2 | 8.0 | 0.00 | 0.00 | 0.00 | 31 | 1012.4 |
| 20260507132529 | 17 | 360 | 4.8 | 8.0 | 0.00 | 0.00 | 0.00 | 32 | 1012.4 |
| 20260507132028 | 17 | 9 | 3.2 | 8.0 | 0.00 | 0.00 | 0.00 | 32 | 1012.4 |
| 20260507131527 | 17 | 360 | 4.8 | 9.7 | 0.00 | 0.00 | 0.00 | 32 | 1012.3 |
| 20260507131031 | 17 | 10 | 3.2 | 9.7 | 0.00 | 0.00 | 0.00 | 32 | 1012.2 |
| 20260507130524 | 17 | 5 | 3.2 | 9.7 | 0.00 | 0.00 | 0.00 | 33 | 1012.2 |
| 20260507130037 | 17 | 5 | 3.2 | 9.7 | 0.00 | 0.00 | 0.00 | 33 | 1012.3 |
| 20260507125523 | 17 | 360 | 4.8 | 9.7 | 0.00 | 0.00 | 0.00 | 33 | 1012.3 |
| 20260507125025 | 17 | 355 | 3.2 | 9.7 | 0.00 | 0.00 | 0.00 | 33 | 1012.2 |
| 20260507124521 | 17 | 360 | 4.8 | 14.5 | 0.00 | 0.00 | 0.00 | 33 | 1012.2 |
| 20260507124020 | 17 | 349 | 6.4 | 14.5 | 0.00 | 0.00 | 0.00 | 33 | 1012.3 |
| 20260507123520 | 16 | 344 | 4.8 | 12.9 | 0.00 | 0.00 | 0.00 | 33 | 1012.3 |
| 20260507123021 | 16 | 355 | 4.8 | 12.9 | 0.00 | 0.00 | 0.00 | 33 | 1012.3 |
| 20260507122519 | 16 | 355 | 6.4 | 12.9 | 0.00 | 0.00 | 0.00 | 33 | 1012.1 |
| 20260507122019 | 16 | 333 | 8.0 | 12.9 | 0.00 | 0.00 | 0.00 | 33 | 1012.2 |
| 20260507121518 | 16 | 345 | 6.4 | 9.7 | 0.00 | 0.00 | 0.00 | 33 | 1012.2 |
| 20260507121019 | 16 | 344 | 6.4 | 9.7 | 0.00 | 0.00 | 0.00 | 33 | 1012.2 |
| 20260507120518 | 16 | 53 | 1.6 | 6.4 | 0.00 | 0.00 | 0.00 | 33 | 1012.3 |
| 20260507120117 | 16 | 53 | 1.6 | 6.4 | 0.00 | 0.00 | 0.00 | 33 | 1012.3 |
| 20260507115516 | 16 | 53 | 1.6 | 6.4 | 0.00 | 0.00 | 0.00 | 33 | 1012.3 |
| 20260507115015 | 16 | 53 | 1.6 | 4.8 | 0.00 | 0.00 | 0.00 | 33 | 1012.5 |
| 20260507114520 | 16 | 53 | 1.6 | 4.8 | 0.00 | 0.00 | 0.00 | 33 | 1012.5 |
| 20260507114014 | 16 | 53 | 0.0 | 4.8 | 0.00 | 0.00 | 0.00 | 33 | 1012.6 |
| 20260507113516 | 16 | 53 | 0.0 | 3.2 | 0.00 | 0.00 | 0.00 | 33 | 1012.7 |
| 20260507113013 | 16 | 53 | 0.0 | 4.8 | 0.00 | 0.00 | 0.00 | 32 | 1012.7 |
| 20260507112514 | 17 | 53 | 0.0 | 6.4 | 0.00 | 0.00 | 0.00 | 32 | 1012.7 |
| 20260507112013 | 17 | 53 | 3.2 | 6.4 | 0.00 | 0.00 | 0.00 | 31 | 1012.8 |
| 20260507111512 | 17 | 53 | 3.2 | 6.4 | 0.00 | 0.00 | 0.00 | 31 | 1012.8 |
| 20260507111012 | 17 | 67 | 3.2 | 6.4 | 0.00 | 0.00 | 0.00 | 32 | 1012.7 |
| 20260507110512 | 16 | 69 | 3.2 | 6.4 | 0.00 | 0.00 | 0.00 | 33 | 1012.8 |
| 20260507110013 | 16 | 70 | 3.2 | 6.4 | 0.00 | 0.00 | 0.00 | 33 | 1012.8 |
| 20260507105511 | 16 | 70 | 3.2 | 4.8 | 0.00 | 0.00 | 0.00 | 33 | 1012.8 |
| 20260507105013 | 16 | 70 | 1.6 | 4.8 | 0.00 | 0.00 | 0.00 | 33 | 1012.9 |
| 20260507104509 | 16 | 70 | 1.6 | 3.2 | 0.00 | 0.00 | 0.00 | 32 | 1012.8 |
| 20260507104007 | 16 | 70 | 0.0 | 3.2 | 0.00 | 0.00 | 0.00 | 32 | 1012.9 |
| 20260507103506 | 16 | 70 | 1.6 | 4.8 | 0.00 | 0.00 | 0.00 | 31 | 1012.9 |
| 20260507103005 | 17 | 70 | 1.6 | 6.4 | 0.00 | 0.00 | 0.00 | 31 | 1013.0 |
| 20260507102506 | 17 | 71 | 3.2 | 9.7 | 0.00 | 0.00 | 0.00 | 31 | 1012.9 |
| 20260507102007 | 17 | 86 | 3.2 | 9.7 | 0.00 | 0.00 | 0.00 | 30 | 1013.0 |
| 20260507101507 | 17 | 19 | 3.2 | 8.0 | 0.00 | 0.00 | 0.00 | 30 | 1012.8 |
| 20260507101005 | 17 | 14 | 3.2 | 8.0 | 0.00 | 0.00 | 0.00 | 30 | 1012.8 |
| 20260507100506 | 18 | 360 | 3.2 | 12.9 | 0.00 | 0.00 | 0.00 | 30 | 1012.8 |
| 20260507100007 | 18 | 355 | 4.8 | 12.9 | 0.00 | 0.00 | 0.00 | 30 | 1012.8 |
| 20260507095505 | 18 | 350 | 6.4 | 12.9 | 0.00 | 0.00 | 0.00 | 30 | 1012.9 |
| 20260507095003 | 18 | 335 | 6.4 | 12.9 | 0.00 | 0.00 | 0.00 | 30 | 1012.8 |
| 20260507094504 | 18 | 344 | 6.4 | 12.9 | 0.00 | 0.00 | 0.00 | 30 | 1012.8 |
| 20260507094008 | 18 | 348 | 4.8 | 9.7 | 0.00 | 0.00 | 0.00 | 30 | 1012.9 |
| 20260507093504 | 17 | 341 | 4.8 | 9.7 | 0.00 | 0.00 | 0.00 | 30 | 1012.9 |
| 20260507093003 | 17 | 299 | 3.2 | 6.4 | 0.00 | 0.00 | 0.00 | 30 | 1013.0 |
| 20260507092504 | 17 | 242 | 3.2 | 4.8 | 0.00 | 0.00 | 0.00 | 29 | 1013.0 |
| 20260507092004 | 17 | 240 | 1.6 | 4.8 | 0.00 | 0.00 | 0.00 | 29 | 1012.9 |
| 20260507091502 | 17 | 240 | 1.6 | 6.4 | 0.00 | 0.00 | 0.00 | 30 | 1013.1 |
| 20260507091002 | 17 | 238 | 3.2 | 4.8 | 0.00 | 0.00 | 0.00 | 30 | 1013.0 |
| 20260507090502 | 17 | 238 | 0.0 | 3.2 | 0.00 | 0.00 | 0.00 | 30 | 1013.1 |
| 20260507090001 | 18 | 238 | 1.6 | 3.2 | 0.00 | 0.00 | 0.00 | 29 | 1013.2 |
| 20260507085600 | 18 | 238 | 1.6 | 4.8 | 0.00 | 0.00 | 0.00 | 29 | 1013.3 |
| 20260507085100 | 17 | 238 | 0.0 | 4.8 | 0.00 | 0.00 | 0.00 | 30 | 1013.3 |
| 20260507084600 | 17 | 238 | 1.6 | 4.8 | 0.00 | 0.00 | 0.00 | 31 | 1013.4 |
| 20260507084058 | 17 | 238 | 0.0 | 1.6 | 0.00 | 0.00 | 0.00 | 29 | 1013.4 |
| 20260507083600 | 17 | 238 | 0.0 | 1.6 | 0.00 | 0.00 | 0.00 | 30 | 1013.4 |
| 20260507083059 | 17 | 238 | 0.0 | 3.2 | 0.00 | 0.00 | 0.00 | 29 | 1013.3 |
| 20260507082559 | 18 | 238 | 0.0 | 4.8 | 0.00 | 0.00 | 0.00 | 28 | 1013.3 |
| 20260507082057 | 18 | 238 | 0.0 | 4.8 | 0.00 | 0.00 | 0.00 | 28 | 1013.3 |
| 20260507081601 | 18 | 238 | 0.0 | 6.4 | 0.00 | 0.00 | 0.00 | 27 | 1013.3 |
| 20260507081059 | 18 | 238 | 1.6 | 6.4 | 0.00 | 0.00 | 0.00 | 27 | 1013.3 |
| 20260507080556 | 18 | 238 | 3.2 | 6.4 | 0.00 | 0.00 | 0.00 | 28 | 1013.3 |
| 20260507080114 | 18 | 236 | 3.2 | 6.4 | 0.00 | 0.00 | 0.00 | 28 | 1013.3 |
| 20260507075559 | 17 | 225 | 0.0 | 4.8 | 0.00 | 0.00 | 0.00 | 28 | 1013.2 |
| 20260507075057 | 17 | 225 | 3.2 | 4.8 | 0.00 | 0.00 | 0.00 | 29 | 1013.3 |
| 20260507074557 | 17 | 225 | 3.2 | 4.8 | 0.00 | 0.00 | 0.00 | 28 | 1013.3 |
| 20260507074054 | 17 | 225 | 1.6 | 3.2 | 0.00 | 0.00 | 0.00 | 29 | 1013.2 |
| 20260507073556 | 17 | 225 | 0.0 | 1.6 | 0.00 | 0.00 | 0.00 | 28 | 1013.3 |
| 20260507073052 | 18 | 225 | 0.0 | 0.0 | 0.00 | 0.00 | 0.00 | 28 | 1013.3 |
| 20260507072553 | 18 | 225 | 0.0 | 1.6 | 0.00 | 0.00 | 0.00 | 27 | 1013.3 |
| 20260507072050 | 18 | 225 | 0.0 | 1.6 | 0.00 | 0.00 | 0.00 | 27 | 1013.3 |
| 20260507071550 | 19 | 225 | 0.0 | 4.8 | 0.00 | 0.00 | 0.00 | 27 | 1013.4 |
| 20260507071049 | 19 | 225 | 1.6 | 4.8 | 0.00 | 0.00 | 0.00 | 27 | 1013.3 |
| 20260507070549 | 18 | 225 | 1.6 | 4.8 | 0.00 | 0.00 | 0.00 | 27 | 1013.3 |
| 20260507070052 | 19 | 225 | 1.6 | 4.8 | 0.00 | 0.00 | 0.00 | 27 | 1013.3 |
| 20260507065549 | 19 | 225 | 1.6 | 4.8 | 0.00 | 0.00 | 0.00 | 27 | 1013.4 |
| 20260507065047 | 19 | 224 | 1.6 | 4.8 | 0.00 | 0.00 | 0.00 | 27 | 1013.3 |
| 20260507064618 | 20 | 224 | 0.0 | 4.8 | 0.00 | 0.00 | 0.00 | 26 | 1013.4 |
| 20260507064049 | 20 | 224 | 1.6 | 4.8 | 0.00 | 0.00 | 0.00 | 26 | 1013.3 |
| 20260507063546 | 20 | 224 | 1.6 | 8.0 | 0.00 | 0.00 | 0.00 | 26 | 1013.3 |
| 20260507063049 | 20 | 223 | 3.2 | 8.0 | 0.00 | 0.00 | 0.00 | 25 | 1013.3 |
| 20260507062545 | 20 | 218 | 1.6 | 4.8 | 0.00 | 0.00 | 0.00 | 25 | 1013.2 |
| 20260507062045 | 20 | 218 | 1.6 | 6.4 | 0.00 | 0.00 | 0.00 | 25 | 1013.2 |
| 20260507061546 | 20 | 217 | 3.2 | 8.0 | 0.00 | 0.00 | 0.00 | 25 | 1013.2 |
| 20260507061046 | 21 | 218 | 3.2 | 8.0 | 0.00 | 0.00 | 0.00 | 25 | 1013.3 |
| 20260507060545 | 21 | 219 | 1.6 | 8.0 | 0.00 | 0.00 | 0.00 | 25 | 1013.2 |
| 20260507060107 | 21 | 220 | 3.2 | 8.0 | 0.00 | 0.00 | 0.00 | 25 | 1013.2 |
| 20260507055547 | 21 | 223 | 1.6 | 8.0 | 0.00 | 0.00 | 0.00 | 24 | 1013.1 |
| 20260507055044 | 21 | 223 | 3.2 | 8.0 | 0.00 | 0.00 | 0.00 | 24 | 1013.3 |
| 20260507054551 | 21 | 227 | 4.8 | 8.0 | 0.00 | 0.00 | 0.00 | 24 | 1013.2 |
| 20260507054045 | 21 | 234 | 3.2 | 8.0 | 0.00 | 0.00 | 0.00 | 24 | 1013.1 |
| 20260507053545 | 21 | 238 | 3.2 | 8.0 | 0.00 | 0.00 | 0.00 | 24 | 1013.2 |
| 20260507053044 | 21 | 240 | 3.2 | 8.0 | 0.00 | 0.00 | 0.00 | 24 | 1013.3 |
| 20260507052544 | 21 | 234 | 1.6 | 8.0 | 0.00 | 0.00 | 0.00 | 24 | 1013.3 |
| 20260507052044 | 21 | 233 | 3.2 | 6.4 | 0.00 | 0.00 | 0.00 | 24 | 1013.3 |
| 20260507051559 | 21 | 233 | 1.6 | 8.0 | 0.00 | 0.00 | 0.00 | 24 | 1013.2 |
| 20260507051045 | 21 | 234 | 3.2 | 8.0 | 0.00 | 0.00 | 0.00 | 24 | 1013.2 |
| 20260507050544 | 22 | 234 | 3.2 | 8.0 | 0.00 | 0.00 | 0.00 | 24 | 1013.2 |
| 20260507050048 | 22 | 237 | 1.6 | 8.0 | 0.00 | 0.00 | 0.00 | 23 | 1013.2 |
| 20260507045544 | 22 | 238 | 3.2 | 8.0 | 0.00 | 0.00 | 0.00 | 23 | 1013.3 |
| 20260507045044 | 22 | 229 | 3.2 | 8.0 | 0.00 | 0.00 | 0.00 | 23 | 1013.1 |
| 20260507044542 | 22 | 229 | 3.2 | 8.0 | 0.00 | 0.00 | 0.00 | 23 | 1013.1 |
| 20260507044046 | 22 | 227 | 4.8 | 8.0 | 0.00 | 0.00 | 0.00 | 23 | 1013.1 |
| 20260507043542 | 22 | 242 | 3.2 | 8.0 | 0.00 | 0.00 | 0.00 | 23 | 1013.1 |
| 20260507043043 | 22 | 233 | 3.2 | 8.0 | 0.00 | 0.00 | 0.00 | 23 | 1013.0 |
| 20260507042542 | 22 | 230 | 3.2 | 8.0 | 0.00 | 0.00 | 0.00 | 23 | 1013.0 |
| 20260507042041 | 22 | 228 | 3.2 | 9.7 | 0.00 | 0.00 | 0.00 | 23 | 1012.9 |
| 20260507041542 | 22 | 227 | 3.2 | 9.7 | 0.00 | 0.00 | 0.00 | 22 | 1012.8 |
| 20260507041042 | 22 | 227 | 3.2 | 8.0 | 0.00 | 0.00 | 0.00 | 22 | 1012.8 |
| 20260507040541 | 22 | 227 | 3.2 | 8.0 | 0.00 | 0.00 | 0.00 | 22 | 1012.7 |
| 20260507040041 | 23 | 221 | 3.2 | 12.9 | 0.00 | 0.00 | 0.00 | 22 | 1012.5 |
| 20260507035540 | 23 | 221 | 4.8 | 11.3 | 0.00 | 0.00 | 0.00 | 22 | 1012.7 |
| 20260507035040 | 23 | 216 | 4.8 | 11.3 | 0.00 | 0.00 | 0.00 | 22 | 1012.6 |
| 20260507034540 | 23 | 217 | 6.4 | 11.3 | 0.00 | 0.00 | 0.00 | 21 | 1012.5 |
| 20260507034039 | 23 | 226 | 4.8 | 12.9 | 0.00 | 0.00 | 0.00 | 21 | 1012.3 |
| 20260507033539 | 23 | 222 | 4.8 | 12.9 | 0.00 | 0.00 | 0.00 | 21 | 1012.3 |
| 20260507033041 | 23 | 244 | 6.4 | 14.5 | 0.00 | 0.00 | 0.00 | 21 | 1012.2 |
| 20260507032539 | 24 | 231 | 6.4 | 12.9 | 0.00 | 0.00 | 0.00 | 21 | 1012.1 |
| 20260507032041 | 24 | 217 | 6.4 | 12.9 | 0.00 | 0.00 | 0.00 | 21 | 1012.1 |
| 20260507031538 | 24 | 234 | 4.8 | 12.9 | 0.00 | 0.00 | 0.00 | 21 | 1012.0 |
| 20260507031038 | 24 | 225 | 6.4 | 16.1 | 0.00 | 0.00 | 0.00 | 21 | 1012.0 |
| 20260507030538 | 25 | 213 | 6.4 | 16.1 | 0.00 | 0.00 | 0.00 | 21 | 1012.0 |
| 20260507030039 | 25 | 221 | 8.0 | 16.1 | 0.00 | 0.00 | 0.00 | 21 | 1011.9 |
| 20260507025538 | 25 | 229 | 8.0 | 16.1 | 0.00 | 0.00 | 0.00 | 21 | 1011.9 |
| 20260507025039 | 25 | 201 | 6.4 | 14.5 | 0.00 | 0.00 | 0.00 | 21 | 1011.8 |
| 20260507024537 | 25 | 214 | 8.0 | 14.5 | 0.00 | 0.00 | 0.00 | 21 | 1011.8 |
| 20260507024038 | 25 | 215 | 6.4 | 14.5 | 0.00 | 0.00 | 0.00 | 20 | 1011.7 |
| 20260507023537 | 25 | 219 | 6.4 | 14.5 | 0.00 | 0.00 | 0.00 | 20 | 1011.4 |
| 20260507023042 | 25 | 223 | 6.4 | 16.1 | 0.00 | 0.00 | 0.00 | 20 | 1011.4 |
| 20260507022537 | 25 | 234 | 6.4 | 16.1 | 0.00 | 0.00 | 0.00 | 20 | 1011.4 |
| 20260507022037 | 25 | 228 | 6.4 | 16.1 | 0.00 | 0.00 | 0.00 | 20 | 1011.4 |
| 20260507021540 | 26 | 221 | 8.0 | 16.1 | 0.00 | 0.00 | 0.00 | 20 | 1011.3 |
| 20260507021036 | 26 | 217 | 9.7 | 16.1 | 0.00 | 0.00 | 0.00 | 20 | 1011.5 |
| 20260507020536 | 26 | 208 | 8.0 | 16.1 | 0.00 | 0.00 | 0.00 | 20 | 1011.5 |
| 20260507020036 | 26 | 213 | 8.0 | 19.3 | 0.00 | 0.00 | 0.00 | 20 | 1011.4 |
| 20260507015540 | 26 | 227 | 9.7 | 19.3 | 0.00 | 0.00 | 0.00 | 20 | 1011.3 |
| 20260507015034 | 26 | 199 | 8.0 | 22.5 | 0.00 | 0.00 | 0.00 | 19 | 1011.4 |
| 20260507014534 | 26 | 244 | 9.7 | 19.3 | 0.00 | 0.00 | 0.00 | 19 | 1011.3 |
| 20260507014034 | 26 | 198 | 9.7 | 19.3 | 0.00 | 0.00 | 0.00 | 19 | 1011.2 |
| 20260507013533 | 26 | 190 | 11.3 | 25.7 | 0.00 | 0.00 | 0.00 | 19 | 1011.3 |
| 20260507013033 | 26 | 215 | 11.3 | 25.7 | 0.00 | 0.00 | 0.00 | 19 | 1011.2 |
| 20260507012537 | 26 | 205 | 14.5 | 24.1 | 0.00 | 0.00 | 0.00 | 19 | 1011.2 |
| 20260507012032 | 27 | 233 | 11.3 | 22.5 | 0.00 | 0.00 | 0.00 | 19 | 1011.2 |
| 20260507011537 | 27 | 252 | 11.3 | 25.7 | 0.00 | 0.00 | 0.00 | 19 | 1011.1 |
| 20260507011031 | 27 | 227 | 11.3 | 25.7 | 0.00 | 0.00 | 0.00 | 19 | 1011.1 |
| 20260507010532 | 27 | 199 | 9.7 | 27.4 | 0.00 | 0.00 | 0.00 | 19 | 1011.2 |
| 20260507010048 | 27 | 205 | 9.7 | 27.4 | 0.00 | 0.00 | 0.00 | 19 | 1011.2 |
| 20260507005531 | 27 | 229 | 9.7 | 19.3 | 0.00 | 0.00 | 0.00 | 19 | 1011.0 |
| 20260507005032 | 27 | 213 | 11.3 | 19.3 | 0.00 | 0.00 | 0.00 | 19 | 1011.1 |
| 20260507004533 | 27 | 212 | 8.0 | 17.7 | 0.00 | 0.00 | 0.00 | 19 | 1011.1 |
| 20260507004029 | 27 | 221 | 8.0 | 19.3 | 0.00 | 0.00 | 0.00 | 19 | 1011.0 |
| 20260507003529 | 27 | 211 | 11.3 | 20.9 | 0.00 | 0.00 | 0.00 | 19 | 1011.0 |
| 20260507003028 | 27 | 217 | 9.7 | 19.3 | 0.00 | 0.00 | 0.00 | 19 | 1011.1 |
| 20260507002528 | 27 | 232 | 8.0 | 16.1 | 0.00 | 0.00 | 0.00 | 19 | 1011.0 |
| 20260507002030 | 27 | 237 | 8.0 | 17.7 | 0.00 | 0.00 | 0.00 | 19 | 1011.2 |
| 20260507001527 | 27 | 220 | 8.0 | 19.3 | 0.00 | 0.00 | 0.00 | 19 | 1011.2 |
| 20260507001027 | 27 | 208 | 9.7 | 17.7 | 0.00 | 0.00 | 0.00 | 19 | 1011.2 |
| 20260507000526 | 27 | 212 | 8.0 | 19.3 | 0.00 | 0.00 | 0.00 | 19 | 1011.1 |
| 20260507000026 | 27 | 204 | 8.0 | 19.3 | 0.00 | 0.00 | 0.00 | 19 | 1011.2 |
| 20260506235527 | 27 | 198 | 4.8 | 19.3 | 0.00 | 0.00 | 0.00 | 19 | 1011.1 |
| 20260506235024 | 27 | 246 | 4.8 | 19.3 | 0.00 | 0.00 | 0.00 | 19 | 1011.2 |
| 20260506234527 | 27 | 224 | 11.3 | 17.7 | 0.00 | 0.00 | 0.00 | 19 | 1011.1 |
| 20260506234023 | 28 | 214 | 9.7 | 16.1 | 0.00 | 0.00 | 0.00 | 18 | 1011.2 |
| 20260506233522 | 27 | 256 | 6.4 | 20.9 | 0.00 | 0.00 | 0.00 | 19 | 1011.2 |
| 20260506233024 | 27 | 191 | 12.9 | 20.9 | 0.00 | 0.00 | 0.00 | 19 | 1011.2 |
| 20260506232524 | 27 | 189 | 9.7 | 17.7 | 0.00 | 0.00 | 0.00 | 19 | 1011.4 |
| 20260506232021 | 27 | 176 | 11.3 | 17.7 | 0.00 | 0.00 | 0.00 | 19 | 1011.3 |
| 20260506231521 | 27 | 223 | 8.0 | 17.7 | 0.00 | 0.00 | 0.00 | 19 | 1011.3 |
| 20260506231022 | 27 | 205 | 8.0 | 17.7 | 0.00 | 0.00 | 0.00 | 20 | 1011.4 |
| 20260506230519 | 27 | 188 | 4.8 | 17.7 | 0.00 | 0.00 | 0.00 | 19 | 1011.4 |
| 20260506230025 | 27 | 162 | 8.0 | 20.9 | 0.00 | 0.00 | 0.00 | 19 | 1011.5 |
| 20260506225518 | 27 | 209 | 11.3 | 22.5 | 0.00 | 0.00 | 0.00 | 19 | 1011.5 |
| 20260506225017 | 27 | 217 | 9.7 | 17.7 | 0.00 | 0.00 | 0.00 | 20 | 1011.5 |
| 20260506224517 | 27 | 225 | 6.4 | 16.1 | 0.00 | 0.00 | 0.00 | 19 | 1011.7 |
| 20260506224017 | 27 | 219 | 4.8 | 16.1 | 0.00 | 0.00 | 0.00 | 20 | 1011.8 |
| 20260506223515 | 27 | 207 | 3.2 | 25.7 | 0.00 | 0.00 | 0.00 | 19 | 1011.8 |
| 20260506223015 | 27 | 254 | 12.9 | 25.7 | 0.00 | 0.00 | 0.00 | 19 | 1011.8 |
| 20260506222515 | 28 | 246 | 8.0 | 22.5 | 0.00 | 0.00 | 0.00 | 19 | 1011.9 |
| 20260506222018 | 28 | 222 | 11.3 | 22.5 | 0.00 | 0.00 | 0.00 | 19 | 1012.1 |
| 20260506221512 | 27 | 265 | 6.4 | 22.5 | 0.00 | 0.00 | 0.00 | 20 | 1012.2 |
| 20260506221013 | 27 | 190 | 4.8 | 22.5 | 0.00 | 0.00 | 0.00 | 20 | 1012.2 |
| 20260506220512 | 27 | 217 | 3.2 | 16.1 | 0.00 | 0.00 | 0.00 | 20 | 1012.2 |
| 20260506220016 | 27 | 257 | 8.0 | 16.1 | 0.00 | 0.00 | 0.00 | 20 | 1012.3 |
| 20260506215515 | 27 | 212 | 6.4 | 17.7 | 0.00 | 0.00 | 0.00 | 20 | 1012.4 |
| 20260506215011 | 27 | 198 | 9.7 | 17.7 | 0.00 | 0.00 | 0.00 | 20 | 1012.4 |
| 20260506214511 | 27 | 192 | 8.0 | 24.1 | 0.00 | 0.00 | 0.00 | 19 | 1012.6 |
| 20260506214012 | 27 | 237 | 3.2 | 20.9 | 0.00 | 0.00 | 0.00 | 20 | 1012.6 |
| 20260506213510 | 27 | 252 | 8.0 | 20.9 | 0.00 | 0.00 | 0.00 | 20 | 1012.6 |
| 20260506213010 | 27 | 234 | 4.8 | 22.5 | 0.00 | 0.00 | 0.00 | 20 | 1012.8 |
| 20260506212510 | 27 | 259 | 6.4 | 20.9 | 0.00 | 0.00 | 0.00 | 20 | 1012.9 |
| 20260506212011 | 27 | 249 | 9.7 | 19.3 | 0.00 | 0.00 | 0.00 | 20 | 1013.0 |
| 20260506211509 | 27 | 300 | 8.0 | 16.1 | 0.00 | 0.00 | 0.00 | 20 | 1013.2 |
| 20260506211008 | 27 | 230 | 9.7 | 17.7 | 0.00 | 0.00 | 0.00 | 20 | 1013.2 |
| 20260506210508 | 27 | 196 | 4.8 | 17.7 | 0.00 | 0.00 | 0.00 | 20 | 1013.2 |
| 20260506210008 | 27 | 228 | 6.4 | 17.7 | 0.00 | 0.00 | 0.00 | 20 | 1013.3 |
| 20260506205506 | 27 | 252 | 8.0 | 24.1 | 0.00 | 0.00 | 0.00 | 21 | 1013.3 |
| 20260506205006 | 26 | 219 | 8.0 | 24.1 | 0.00 | 0.00 | 0.00 | 21 | 1013.3 |
| 20260506204505 | 26 | 187 | 8.0 | 16.1 | 0.00 | 0.00 | 0.00 | 21 | 1013.5 |
| 20260506204005 | 26 | 200 | 6.4 | 14.5 | 0.00 | 0.00 | 0.00 | 21 | 1013.5 |
| 20260506203504 | 26 | 138 | 8.0 | 17.7 | 0.00 | 0.00 | 0.00 | 21 | 1013.6 |
| 20260506203004 | 26 | 162 | 6.4 | 22.5 | 0.00 | 0.00 | 0.00 | 22 | 1013.7 |
| 20260506202504 | 26 | 231 | 8.0 | 24.1 | 0.00 | 0.00 | 0.00 | 22 | 1013.7 |
| 20260506202004 | 25 | 196 | 9.7 | 16.1 | 0.00 | 0.00 | 0.00 | 22 | 1013.7 |
| 20260506201513 | 25 | 153 | 4.8 | 14.5 | 0.00 | 0.00 | 0.00 | 22 | 1013.7 |
| 20260506201004 | 25 | 139 | 0.0 | 16.1 | 0.00 | 0.00 | 0.00 | 22 | 1013.8 |
| 20260506200503 | 26 | 213 | 1.6 | 17.7 | 0.00 | 0.00 | 0.00 | 22 | 1013.9 |
| 20260506200003 | 26 | 238 | 4.8 | 17.7 | 0.00 | 0.00 | 0.00 | 22 | 1014.0 |
| 20260506195502 | 25 | 144 | 1.6 | 16.1 | 0.00 | 0.00 | 0.00 | 23 | 1013.9 |
| 20260506195001 | 25 | 233 | 6.4 | 16.1 | 0.00 | 0.00 | 0.00 | 22 | 1014.2 |
| 20260506194505 | 25 | 87 | 0.0 | 12.9 | 0.00 | 0.00 | 0.00 | 23 | 1014.2 |
| 20260506194001 | 25 | 190 | 1.6 | 16.1 | 0.00 | 0.00 | 0.00 | 23 | 1014.3 |
| 20260506193501 | 25 | 197 | 6.4 | 14.5 | 0.00 | 0.00 | 0.00 | 22 | 1014.3 |
| 20260506193001 | 25 | 355 | 1.6 | 12.9 | 0.00 | 0.00 | 0.00 | 23 | 1014.3 |
| 20260506192504 | 25 | 219 | 4.8 | 22.5 | 0.00 | 0.00 | 0.00 | 22 | 1014.4 |
| 20260506192100 | 26 | 284 | 9.7 | 22.5 | 0.00 | 0.00 | 0.00 | 22 | 1014.4 |
| 20260506191623 | 26 | 213 | 3.2 | 11.3 | 0.00 | 0.00 | 0.00 | 23 | 1014.5 |
| 20260506191059 | 25 | 213 | 1.6 | 11.3 | 0.00 | 0.00 | 0.00 | 23 | 1014.5 |
| 20260506190600 | 25 | 189 | 0.0 | 12.9 | 0.00 | 0.00 | 0.00 | 23 | 1014.5 |
| 20260506190058 | 25 | 250 | 1.6 | 17.7 | 0.00 | 0.00 | 0.00 | 23 | 1014.6 |
| 20260506185557 | 25 | 200 | 8.0 | 17.7 | 0.00 | 0.00 | 0.00 | 22 | 1014.6 |
| 20260506185056 | 25 | 303 | 1.6 | 11.3 | 0.00 | 0.00 | 0.00 | 23 | 1014.5 |
| 20260506184615 | 25 | 252 | 0.0 | 11.3 | 0.00 | 0.00 | 0.00 | 23 | 1014.6 |
| 20260506184056 | 25 | 239 | 4.8 | 11.3 | 0.00 | 0.00 | 0.00 | 23 | 1014.8 |
| 20260506183556 | 25 | 223 | 0.0 | 9.7 | 0.00 | 0.00 | 0.00 | 24 | 1014.9 |
| 20260506183053 | 23 | 244 | 1.6 | 9.7 | 0.00 | 0.00 | 0.00 | 25 | 1014.9 |
| 20260506182552 | 23 | 202 | 0.0 | 8.0 | 0.00 | 0.00 | 0.00 | 25 | 1014.9 |
| 20260506182051 | 23 | 173 | 1.6 | 12.9 | 0.00 | 0.00 | 0.00 | 24 | 1015.1 |
| 20260506181550 | 23 | 175 | 1.6 | 12.9 | 0.00 | 0.00 | 0.00 | 25 | 1015.2 |
| 20260506181049 | 23 | 254 | 1.6 | 11.3 | 0.00 | 0.00 | 0.00 | 24 | 1015.2 |
| 20260506180548 | 24 | 247 | 1.6 | 11.3 | 0.00 | 0.00 | 0.00 | 24 | 1015.2 |
| 20260506180046 | 23 | 360 | 0.0 | 11.3 | 0.00 | 0.00 | 0.00 | 24 | 1015.2 |
| 20260506175545 | 23 | 261 | 4.8 | 11.3 | 0.00 | 0.00 | 0.00 | 25 | 1015.2 |
| 20260506175047 | 23 | 254 | 1.6 | 12.9 | 0.00 | 0.00 | 0.00 | 25 | 1015.3 |
| 20260506174542 | 23 | 276 | 0.0 | 14.5 | 0.00 | 0.00 | 0.00 | 24 | 1015.2 |
| 20260506174041 | 23 | 240 | 4.8 | 14.5 | 0.00 | 0.00 | 0.00 | 27 | 1015.3 |
| 20260506173539 | 22 | 163 | 0.0 | 6.4 | 0.00 | 0.00 | 0.00 | 26 | 1015.2 |
| 20260506173140 | 23 | 225 | 0.0 | 4.8 | 0.00 | 0.00 | 0.00 | 27 | 1015.3 |
| 20260506172537 | 23 | 244 | 0.0 | 8.0 | 0.00 | 0.00 | 0.00 | 27 | 1015.3 |
| 20260506172040 | 22 | 259 | 1.6 | 8.0 | 0.00 | 0.00 | 0.00 | 29 | 1015.3 |
| 20260506171547 | 22 | 203 | 0.0 | 11.3 | 0.00 | 0.00 | 0.00 | 29 | 1015.3 |
| 20260506171034 | 22 | 271 | 1.6 | 11.3 | 0.00 | 0.00 | 0.00 | 28 | 1015.2 |
| 20260506170533 | 22 | 247 | 1.6 | 9.7 | 0.00 | 0.00 | 0.00 | 29 | 1015.3 |
| 20260506170035 | 22 | 261 | 1.6 | 8.0 | 0.00 | 0.00 | 0.00 | 29 | 1015.2 |
| 20260506165535 | 22 | 194 | 0.0 | 9.7 | 0.00 | 0.00 | 0.00 | 29 | 1015.2 |
| 20260506165028 | 22 | 257 | 0.0 | 6.4 | 0.00 | 0.00 | 0.00 | 29 | 1015.1 |
| 20260506164526 | 22 | 317 | 1.6 | 6.4 | 0.00 | 0.00 | 0.00 | 30 | 1015.2 |
| 20260506164025 | 22 | 260 | 3.2 | 6.4 | 0.00 | 0.00 | 0.00 | 29 | 1015.1 |
| 20260506163526 | 22 | 272 | 1.6 | 8.0 | 0.00 | 0.00 | 0.00 | 29 | 1015.2 |
| 20260506163025 | 21 | 269 | 1.6 | 8.0 | 0.00 | 0.00 | 0.00 | 30 | 1015.1 |
| 20260506162521 | 21 | 238 | 0.0 | 4.8 | 0.00 | 0.00 | 0.00 | 31 | 1015.2 |
| 20260506162020 | 21 | 261 | 0.0 | 6.4 | 0.00 | 0.00 | 0.00 | 30 | 1015.1 |
| 20260506161519 | 21 | 257 | 1.6 | 6.4 | 0.00 | 0.00 | 0.00 | 31 | 1015.1 |
| 20260506161017 | 20 | 265 | 0.0 | 6.4 | 0.00 | 0.00 | 0.00 | 31 | 1015.1 |
| 20260506160515 | 21 | 246 | 0.0 | 6.4 | 0.00 | 0.00 | 0.00 | 31 | 1015.0 |
| 20260506160016 | 20 | 247 | 0.0 | 6.4 | 0.00 | 0.00 | 0.00 | 31 | 1014.9 |
| 20260506155512 | 20 | 244 | 1.6 | 4.8 | 0.00 | 0.00 | 0.00 | 32 | 1015.0 |
| 20260506155010 | 20 | 255 | 1.6 | 4.8 | 0.00 | 0.00 | 0.00 | 32 | 1015.1 |
| 20260506154511 | 19 | 235 | 0.0 | 3.2 | 0.00 | 0.00 | 0.00 | 33 | 1015.0 |
| 20260506154009 | 19 | 239 | 0.0 | 3.2 | 0.00 | 0.00 | 0.00 | 33 | 1015.0 |
| 20260506153508 | 20 | 275 | 0.0 | 3.2 | 0.00 | 0.00 | 0.00 | 32 | 1015.0 |
| 20260506153006 | 19 | 277 | 0.0 | 1.6 | 0.00 | 0.00 | 0.00 | 33 | 1015.1 |
| 20260506152508 | 19 | 277 | 0.0 | 1.6 | 0.00 | 0.00 | 0.00 | 33 | 1015.1 |
| 20260506152005 | 18 | 277 | 0.0 | 1.6 | 0.00 | 0.00 | 0.00 | 34 | 1015.1 |
| 20260506151504 | 18 | 277 | 0.0 | 3.2 | 0.00 | 0.00 | 0.00 | 34 | 1015.2 |
| 20260506151004 | 18 | 277 | 0.0 | 3.2 | 0.00 | 0.00 | 0.00 | 34 | 1015.2 |
| 20260506150505 | 18 | 277 | 0.0 | 4.8 | 0.00 | 0.00 | 0.00 | 35 | 1015.1 |
| 20260506145600 | 18 | 255 | 0.0 | 4.8 | 0.00 | 0.00 | 0.00 | 35 | 1015.1 |
| 20260506145057 | 17 | 246 | 0.0 | 3.2 | 0.00 | 0.00 | 0.00 | 36 | 1015.2 |
| 20260506144603 | 17 | 245 | 0.0 | 3.2 | 0.00 | 0.00 | 0.00 | 36 | 1015.1 |
| 20260506144055 | 17 | 244 | 0.0 | 1.6 | 0.00 | 0.00 | 0.00 | 36 | 1015.1 |
| 20260506143555 | 17 | 244 | 0.0 | 1.6 | 0.00 | 0.00 | 0.00 | 37 | 1015.0 |